GW5684 Weather Reports


Display with metric or nautical units.
time (UTC)temp
F
wind
direction
speed
MPH
gust
MPH
rain 1hr
in
rain 24hr
in
rain mn
in
humidity
%
barometer
mb
20260504150511 66 268 1.0 5.0 0.00 0.00 0.00 43 1013.8
20260504141008 62 215 2.0 6.0 0.00 0.00 0.00 47 1014.2
20260504140508 61 213 1.0 2.0 0.00 0.00 0.00 48 1014.2
20260504130504 56 225 1.0 4.0 0.00 0.00 0.00 52 1014.7
20260504110506 47 176 0.0 2.0 0.00 0.00 0.00 75 1015.3
20260504100503 48 176 0.0 2.0 0.00 0.00 0.00 73 1014.9
20260504082006 48 98 0.0 0.0 0.00 0.00 0.00 72 1015.4
20260504081522 48 98 0.0 0.0 0.00 0.00 0.00 71 1015.4
20260504081011 48 98 0.0 0.0 0.00 0.00 0.00 70 1015.4
20260504080511 48 98 0.0 0.0 0.00 0.00 0.00 70 1015.4
20260504050505 46 98 0.0 0.0 0.00 0.00 0.00 72 1015.7
20260504050020 47 98 0.0 0.0 0.00 0.00 0.00 72 1015.6
20260504045505 47 98 0.0 0.0 0.00 0.00 0.00 71 1015.6
20260504045005 47 98 0.0 0.0 0.00 0.00 0.00 71 1015.6
20260504044506 46 98 0.0 0.0 0.00 0.00 0.00 72 1015.5
20260504044003 46 98 0.0 0.0 0.00 0.00 0.00 73 1015.6
20260504043503 45 98 0.0 0.0 0.00 0.00 0.00 74 1015.5
20260504043004 44 98 0.0 0.0 0.00 0.00 0.00 74 1015.5
20260504042504 44 98 0.0 0.0 0.00 0.00 0.00 75 1015.5
20260504042003 44 98 0.0 0.0 0.00 0.00 0.00 75 1015.4
20260504041510 43 98 0.0 0.0 0.00 0.00 0.00 75 1015.5
20260504041003 43 98 0.0 0.0 0.00 0.00 0.00 74 1015.4
20260504040504 44 98 0.0 0.0 0.00 0.00 0.00 73 1015.4
20260504040010 44 98 0.0 0.0 0.00 0.00 0.00 73 1015.5
20260504035507 44 98 0.0 0.0 0.00 0.00 0.00 72 1015.5
20260504035004 44 98 0.0 0.0 0.00 0.00 0.00 72 1015.6
20260504034510 44 98 0.0 0.0 0.00 0.00 0.00 72 1015.5
20260504034007 44 98 0.0 0.0 0.00 0.00 0.00 72 1015.5
20260504033507 44 98 0.0 0.0 0.00 0.00 0.00 71 1015.4
20260504033013 44 98 0.0 0.0 0.00 0.00 0.00 70 1015.4
20260504032503 44 98 0.0 0.0 0.00 0.00 0.00 71 1015.4
20260504032006 44 98 0.0 0.0 0.00 0.00 0.00 70 1015.3
20260504031508 44 98 0.0 0.0 0.00 0.00 0.00 69 1015.4
20260504031003 44 98 0.0 0.0 0.00 0.00 0.00 69 1015.5
20260504030508 45 98 0.0 0.0 0.00 0.00 0.00 68 1015.5
20260504030011 45 98 0.0 1.0 0.00 0.00 0.00 66 1015.4
20260504025505 45 98 0.0 2.0 0.00 0.00 0.00 65 1015.4
20260504025006 45 98 0.0 2.0 0.00 0.00 0.00 66 1015.3
20260504024514 45 98 0.0 1.0 0.00 0.00 0.00 64 1015.2
20260504024007 46 98 0.0 0.0 0.00 0.00 0.00 64 1015.2
20260504023507 46 98 0.0 0.0 0.00 0.00 0.00 63 1015.2
20260504023012 46 98 0.0 0.0 0.00 0.00 0.00 63 1015.2
20260504022509 46 98 0.0 0.0 0.00 0.00 0.00 63 1015.2
20260504022007 46 98 0.0 2.0 0.00 0.00 0.00 63 1015.1
20260504021516 46 98 0.0 2.0 0.00 0.00 0.00 61 1015.2
20260504021007 47 98 0.0 2.0 0.00 0.00 0.00 60 1015.2
20260504020503 47 98 0.0 2.0 0.00 0.00 0.00 59 1015.1
20260504020008 47 104 0.0 2.0 0.00 0.00 0.00 59 1015.1
20260504015504 47 192 0.0 1.0 0.00 0.00 0.00 59 1015.1
20260504015006 47 192 0.0 1.0 0.00 0.00 0.00 58 1015.0
20260504014513 48 192 0.0 1.0 0.00 0.00 0.00 55 1014.9
20260504014005 48 192 0.0 2.0 0.00 0.00 0.00 55 1014.9
20260504013506 48 192 0.0 2.0 0.00 0.00 0.00 55 1014.9
20260504013018 49 192 0.0 2.0 0.00 0.00 0.00 54 1014.7
20260504012507 49 192 0.0 0.0 0.00 0.00 0.00 54 1014.6
20260504012008 49 192 0.0 0.0 0.00 0.00 0.00 52 1014.7
20260504011515 49 192 0.0 0.0 0.00 0.00 0.00 53 1014.7
20260504011005 50 192 0.0 2.0 0.00 0.00 0.00 52 1014.7
20260504010506 50 192 0.0 2.0 0.00 0.00 0.00 51 1014.7
20260504010015 51 192 0.0 1.0 0.00 0.00 0.00 49 1014.7
20260504005506 51 192 0.0 2.0 0.00 0.00 0.00 49 1014.7
20260504005003 51 192 0.0 2.0 0.00 0.00 0.00 48 1014.6
20260504004510 52 192 0.0 2.0 0.00 0.00 0.00 48 1014.6
20260504004008 52 192 0.0 0.0 0.00 0.00 0.00 45 1014.5
20260504003508 53 192 0.0 1.0 0.00 0.00 0.00 43 1014.5
20260504003016 54 192 0.0 1.0 0.00 0.00 0.00 41 1014.5
20260504002507 55 192 0.0 2.0 0.00 0.00 0.00 40 1014.4
20260504002006 55 192 0.0 2.0 0.00 0.00 0.00 39 1014.4
20260504001518 55 192 0.0 0.0 0.00 0.00 0.00 39 1014.4
20260504001008 56 192 0.0 2.0 0.00 0.00 0.00 37 1014.3
20260504000506 58 192 0.0 2.0 0.00 0.00 0.00 35 1014.3
20260504000044 59 192 0.0 2.0 0.00 0.00 0.00 30 1014.3
20260503235509 60 187 0.0 1.0 0.00 0.00 0.00 29 1014.2
20260503235008 60 184 0.0 2.0 0.00 0.00 0.00 30 1014.2
20260503234518 61 231 1.0 3.0 0.00 0.00 0.00 28 1014.2
20260503234007 61 229 1.0 3.0 0.00 0.00 0.00 28 1014.2
20260503233510 61 252 1.0 3.0 0.00 0.00 0.00 28 1014.1
20260503233016 61 237 2.0 3.0 0.00 0.00 0.00 27 1014.1
20260503232505 61 237 0.0 3.0 0.00 0.00 0.00 28 1014.1
20260503232006 61 259 1.0 3.0 0.00 0.00 0.00 27 1014.0
20260503231520 61 263 1.0 4.0 0.00 0.00 0.00 27 1014.0
20260503231006 61 312 0.0 4.0 0.00 0.00 0.00 28 1014.0
20260503230506 62 338 1.0 4.0 0.00 0.00 0.00 28 1014.0
20260503230020 62 229 1.0 6.0 0.00 0.00 0.00 27 1014.0
20260503225510 62 235 2.0 6.0 0.00 0.00 0.00 26 1014.0
20260503225006 62 235 1.0 5.0 0.00 0.00 0.00 26 1014.0
20260503224508 62 266 1.0 6.0 0.00 0.00 0.00 26 1014.1
20260503224006 62 36 2.0 6.0 0.00 0.00 0.00 26 1014.1
20260503223504 62 248 3.0 6.0 0.00 0.00 0.00 25 1014.2
20260503223016 62 24 1.0 4.0 0.00 0.00 0.00 26 1014.1
20260503222507 62 248 1.0 4.0 0.00 0.00 0.00 26 1014.1
20260503222008 63 258 2.0 6.0 0.00 0.00 0.00 27 1014.1
20260503221517 63 24 2.0 6.0 0.00 0.00 0.00 26 1014.0
20260503221009 62 232 2.0 6.0 0.00 0.00 0.00 26 1014.1
20260503220502 63 231 2.0 9.0 0.00 0.00 0.00 26 1014.1
20260503220002 62 200 3.0 9.0 0.00 0.00 0.00 25 1014.2
20260503215501 62 262 4.0 8.0 0.00 0.00 0.00 25 1014.1
20260503215002 62 228 4.0 8.0 0.00 0.00 0.00 25 1014.1
20260503214506 62 238 1.0 8.0 0.00 0.00 0.00 26 1014.1
20260503214005 62 348 3.0 8.0 0.00 0.00 0.00 26 1014.2
20260503213509 62 283 3.0 8.0 0.00 0.00 0.00 26 1014.2
20260503213012 62 252 3.0 8.0 0.00 0.00 0.00 27 1014.2
20260503212504 62 360 3.0 8.0 0.00 0.00 0.00 27 1014.2
20260503212007 62 333 2.0 5.0 0.00 0.00 0.00 28 1014.1
20260503211517 62 248 1.0 5.0 0.00 0.00 0.00 27 1014.1
20260503211007 63 265 1.0 5.0 0.00 0.00 0.00 28 1014.2
20260503210511 62 229 2.0 6.0 0.00 0.00 0.00 28 1014.1
20260503210020 62 14 2.0 6.0 0.00 0.00 0.00 28 1014.2
20260503205504 62 216 2.0 5.0 0.00 0.00 0.00 28 1014.2
20260503205002 61 220 1.0 5.0 0.00 0.00 0.00 29 1014.3
20260503204506 61 242 2.0 9.0 0.00 0.00 0.00 28 1014.3
20260503204005 61 268 3.0 9.0 0.00 0.00 0.00 29 1014.4
20260503203504 61 292 3.0 8.0 0.00 0.00 0.00 29 1014.4
20260503203018 61 245 4.0 10.0 0.00 0.00 0.00 28 1014.3
20260503202506 61 5 3.0 10.0 0.00 0.00 0.00 28 1014.3
20260503202007 61 229 4.0 9.0 0.00 0.00 0.00 29 1014.4
20260503201514 61 331 3.0 8.0 0.00 0.00 0.00 29 1014.4
20260503201007 61 321 2.0 8.0 0.00 0.00 0.00 29 1014.6
20260503200507 61 257 3.0 7.0 0.00 0.00 0.00 29 1014.7
20260503200018 61 184 2.0 7.0 0.00 0.00 0.00 28 1014.7
20260503195508 61 265 3.0 8.0 0.00 0.00 0.00 28 1014.9
20260503195005 60 318 3.0 8.0 0.00 0.00 0.00 30 1014.9
20260503194507 61 263 2.0 9.0 0.00 0.00 0.00 31 1015.1
20260503194003 61 214 3.0 9.0 0.00 0.00 0.00 29 1014.9
20260503193505 61 184 3.0 7.0 0.00 0.00 0.00 30 1014.8
20260503193009 61 211 2.0 12.0 0.00 0.00 0.00 31 1015.1
20260503192501 60 248 3.0 12.0 0.00 0.00 0.00 31 1015.3
20260503192002 60 238 1.0 5.0 0.00 0.00 0.00 30 1015.2
20260503191502 60 231 3.0 9.0 0.00 0.00 0.00 30 1015.2
20260503191002 60 250 2.0 11.0 0.00 0.00 0.00 31 1015.4
20260503190502 59 239 3.0 11.0 0.00 0.00 0.00 31 1015.4
20260503190005 59 219 3.0 9.0 0.00 0.00 0.00 31 1015.5
20260503185503 59 229 2.0 9.0 0.00 0.00 0.00 33 1015.4
20260503185003 59 236 4.0 9.0 0.00 0.00 0.00 31 1015.6
20260503184504 59 37 3.0 13.0 0.00 0.00 0.00 32 1015.6
20260503184007 59 321 3.0 13.0 0.00 0.00 0.00 31 1015.8
20260503183504 59 337 3.0 8.0 0.00 0.00 0.00 31 1015.9
20260503183004 59 229 2.0 8.0 0.00 0.00 0.00 33 1015.9
20260503182502 59 298 4.0 8.0 0.00 0.00 0.00 32 1016.1
20260503182006 57 241 3.0 8.0 0.00 0.00 0.00 33 1016.0
20260503181508 58 286 3.0 8.0 0.00 0.00 0.00 31 1016.0
20260503181003 58 271 2.0 10.0 0.00 0.00 0.00 34 1016.0
20260503180505 57 250 3.0 11.0 0.00 0.00 0.00 34 1016.2
20260503180003 57 277 6.0 11.0 0.00 0.00 0.00 33 1016.2
20260503175504 58 230 2.0 10.0 0.00 0.00 0.00 33 1016.2
20260503175003 57 240 3.0 10.0 0.00 0.00 0.00 33 1016.2
20260503174508 58 26 2.0 11.0 0.00 0.00 0.00 34 1016.2
20260503174007 57 345 3.0 12.0 0.00 0.00 0.00 33 1016.2
20260503173503 57 272 4.0 12.0 0.00 0.00 0.00 35 1016.3
20260503173013 57 228 4.0 11.0 0.00 0.00 0.00 32 1016.2
20260503172504 57 32 4.0 11.0 0.00 0.00 0.00 32 1016.2
20260503172005 56 204 4.0 8.0 0.00 0.00 0.00 33 1016.3
20260503171508 56 288 4.0 8.0 0.00 0.00 0.00 34 1016.5
20260503171006 55 261 1.0 9.0 0.00 0.00 0.00 33 1016.4
20260503170506 56 232 3.0 9.0 0.00 0.00 0.00 34 1016.6
20260503151003 52 50 4.0 11.0 0.00 0.00 0.00 37 1017.0